Weather Roundup
Issued by NWS Springfield, MO

Home | Current Version | Previous Version | Text Only | Print | Product List | Glossary On
Versions: 1 2 3 4 5 6 7 8 9 10 11 12 13 14 15 16 17 18 19 20 21 22 23 24 25 26 27 28 29 30 31 32 33 34 35 36 37 38 39 40 41 42 43 44 45 46 47 48 49 50
000
NZUS99 KSGF 210107
HRRSGF

HOURLY WEATHER
NATIONAL WEATHER SERVICE SPRINGFIELD MO
700 PM CST SAT DEC 20 2014

......SGF CWA......

CITY           SKY/WX    TMP DP  RH WIND       PRES   REMARKS
SPRINGFIELD    CLOUDY    42  36  79 S8        30.18R
JOPLIN         CLOUDY    43  35  73 S10       30.18S
WEST PLAINS    CLOUDY    41  35  79 S5        30.22R
ROLLA          CLOUDY    39  34  82 SW5       30.19R
OSAGE BEACH    CLOUDY    43  34  70 S5        30.20S
BRANSON        CLOUDY    41  39  93 CALM      30.19S FOG

......SURROUNDING SGF CWA......

CITY           SKY/WX    TMP DP  RH WIND       PRES   REMARKS
CHANUTE        CLEAR     36  33  89 S8        30.15R WCI  30
PARSONS        CLEAR     39  34  82 S5        30.17R
COFFEYVILLE    CLEAR     38  33  82 S7        30.17R WCI  33
EMPORIA        PTCLDY    36  33  89 S7        30.11R WCI  30
GROVE OK       CLOUDY    45  37  76 CALM      30.20S
ROGERS AR      CLOUDY    41  35  79 SW8       30.19S
SILOAM SPRINGS CLOUDY    43  32  65 S3        30.20S
HARRISON AR    CLOUDY    41  39  93 SE5       30.19S
NEAR YELLVILLE CLOUDY    43  36  75 CALM      30.21S

......KANSAS AND MISSOURI......

CITY           SKY/WX    TMP DP  RH WIND       PRES   REMARKS
KANSAS CTY INT CLOUDY    42  37  82 S10       30.12R
DOWNTOWN KC    CLEAR     41  35  79 S9        30.15R
COLUMBIA       CLOUDY    40  36  86 SE3       30.20S
SEDALIA        CLOUDY    41  34  76 SW9       30.19R
ST JOSEPH      CLOUDY    38  36  92 CALM      30.11S
ST LOUIS       CLOUDY    43  32  65 SE8       30.25R
SPIRIT OF STL  CLOUDY    42  34  73 SE5       30.24R
KIRKSVILLE     CLOUDY    37  36  96 S8        30.18S WCI  31
WICHITA        CLOUDY    44  36  73 S14       30.11R
TOPEKA         PTCLDY    44  37  76 S7        30.11S
OLATHE         CLEAR     37  34  89 S10       30.14R WCI  30

......TENNESSEE......

CITY           SKY/WX    TMP DP  RH WIND       PRES   REMARKS
MEMPHIS        PTCLDY    44  33  65 NE5       30.24R
NASHVILLE      MOCLDY    36  28  73 N7        30.26S WCI  30

......ARKANSAS.......

CITY           SKY/WX    TMP DP  RH WIND       PRES   REMARKS
FAYETTEVILLE   CLOUDY    41  36  82 CALM      30.19S
FT SMITH       CLOUDY    45  40  82 CALM      30.21S
LITTLE ROCK    PTCLDY    42  35  76 E3        30.25R

......OKLAHOMA.......

CITY           SKY/WX    TMP DP  RH WIND       PRES   REMARKS
TULSA          CLOUDY    44  38  79 S8        30.20R
PONCA CITY     CLOUDY    44  36  73 SW7       30.15R
MCALESTER      CLOUDY    45  42  89 CALM      30.19F
OKLAHOMA CITY  CLOUDY    43  36  76 S8        30.14S

......IOWA............

CITY           SKY/WX    TMP DP  RH WIND       PRES   REMARKS
DES MOINES     CLOUDY    36  33  89 S6        30.14S WCI  31
QUAD CITIES    CLOUDY    34  28  79 SE6       30.22R WCI  29

......ILLINOIS........

CITY           SKY/WX    TMP DP  RH WIND       PRES   REMARKS
QUINCY         CLOUDY    36  33  89 SE9       30.20F FOG     WCI  29
CHICAGO        CLOUDY    31  25  78 S6        30.25S WCI  25



USA.gov is the U.S. government's official web portal to all federal, state and local government web resources and services.